STARLINK-11100, 59713

Orbit data source: Space-Track

STARLINK-11100, 59713 is a payload satellite owned by SpaceX/Seattle (US) in LEO that was launched on Fri, 10 May 2024 UTC via an FALCON 9 launch vehicle from the Air Force Western Test Range (AFWTR). Payload-class satellites include a variety of spacecraft equipped with specific instruments for various scientific and technological missions. These include communications satellites like Starlink; space stations such as the ISS; scientific satellites like the Hubble; Earth observation satellites from companies like Planet Labs, Umbra, and HawkEye 360; GPS; miniature CubeSats for education and research; and military/defense satellites.

Loading next visibility...
Identifier
59713, 2024-088F
Orbit
LEO
Country
Flag of USUS
Related business
Manufacturer
SpaceX/Seattle
Mission
Operational Commercial Communications
Bus & Motor
STARLINK V2MD, Unknown motor
Mass
960 kg wet, ~910 kg dry
Launch date (UTC)
2024-05-10 (2 years ago)
Launch vehicle
FALCON 9
Launch site
Air Force Western Test Range (AFWTR)
Object type
Payload
Rocket body
Debris
Shape & HBR
Box + 2 Pan, 18.1 m
Radar Cross Section
36.964 m², Large (>1 m²)

Expand to show TLE details & history
Last TLE update: 1 day ago

TLE from 1 day ago
0 STARLINK-11100
1 59713U 24088F   25346.41494416 -.00004349  00000-0 -31118-4 0  9990
2 59713  53.1591  36.5854 0000982  97.2806 262.8323 15.69667979 92566
Epoch: 2025-12-12T09:57Z
TLE epoch observation values (Epoch: 2025-12-12T09:57:31.175Z)
Latitude
-0.00006°
Longitude
165.84856°
Altitude
360.845 km
Speed
7.694 km/s
True Right ascension
02h 26m 20s
True Declination
0° 00' 00"
Sunlit
Object was in full shadow at epoch
Visualization orbit readout
Latitude
Unknown
Longitude
Unknown
Altitude
Unknown
Speed
Unknown
Apparent Right ascension
Unknown
Apparent Declination
Unknown
Sunlit
N/A
Visualization observer readout
Local Sidereal Time
09:41:27
Azimuth
Unknown
Elevation
Unknown
Doppler factor
Unknown
Orbital elements
Apogee altitude
360.77 km
Perigee altitude
359.446 km
Semi-major axis
6,738.245 km
Eccentricity
0.0001
Inclination
53.1591°
RAAN
36.5854°
Arg. of periapsis
97.2806°
True anomaly
262.82114°
Mean anomaly
262.8323°
Eccentric anomaly
262.82672°
Mean motion
3.92395 °/min
Orbital period
91.74 mins
BSTAR
-0.000031118
Loading maneuver chart data...
Computing Atmospheric mass density...
Loading historical data...
Loading historical data...
Loading historical data...
Loading historical data...
Loading historical data...
Loading historical data...
Loading historical data...

Documentation

Showing up to 5 results
|